This demonstration page uses our WeatherBlox Daily Observations layout. Learn more.

Hourly Observations for August 20, 2015

Temp ( °F °C ) Dew Point ( °F °C ) Humidity (%) Winds ( mph kmh ) Pressure ( in mb ) Visibility ( mi km ) Precip ( " mm )
12:15 am 00:15 Clear 57 13.9 49 9.5 75 75 SW 6 9 29.94 1014 10 16.0934 0 0
12:35 am 00:35 Clear 58 14.3 49 9.4 73 73 SW 6 9 29.94 1014 10 16.0934 0 0
12:55 am 00:55 Clear 57 14.1 49 9.2 73 73 SW 6 9 29.94 1014 10 16.0934 0 0
1:15 am 01:15 Clear 57 13.9 48 9.1 73 73 SW 6 9 29.94 1014 10 16.0934 0 0
1:35 am 01:35 Clear 58 14.3 48 9 71 71 SW 7 11 29.94 1014 10 16.0934 0 0
1:55 am 01:55 Clear 56 13.5 48 9 74 74 SSW 7 11 29.94 1014 10 16.0934 0 0
2:15 am 02:15 Clear 56 13.5 48 8.8 73 73 SW 6 9 29.94 1014 10 16.0934 0 0
2:35 am 02:35 Clear 55 13 48 8.9 76 76 SW 7 11 29.94 1014 10 16.0934 0 0
2:55 am 02:55 Clear 56 13.2 47 8.5 73 73 SW 7 11 29.94 1014 10 16.0934 0 0
3:15 am 03:15 Clear 55 12.5 47 8.5 77 77 SW 6 9 29.94 1014 10 16.0934 0 0
3:35 am 03:35 Clear 54 12.2 47 8.5 78 78 SW 6 9 29.97 1015 10 16.0934 0 0
3:55 am 03:55 Clear 54 12.2 47 8.6 79 79 SSW 6 9 29.97 1015 10 16.0934 0 0
4:15 am 04:15 Clear 54 12 47 8.5 79 79 SSW 6 9 29.97 1015 10 16.0934 0 0
4:35 am 04:35 Clear 54 12 47 8.5 79 79 SW 5 7 29.97 1015 10 16.0934 0 0
4:55 am 04:55 Clear 53 11.5 47 8.2 80 80 SW 5 7 29.97 1015 10 16.0934 0 0
5:15 am 05:15 Clear 54 12 47 8.2 78 78 SW 6 9 29.97 1015 10 16.0934 0 0
5:35 am 05:35 Clear 53 11.5 47 8.2 80 80 SW 3 6 29.97 1015 10 16.0934 0 0
5:55 am 05:55 Clear 53 11.6 46 8 79 79 SW 5 7 29.97 1015 10 16.0934 0 0
6:15 am 06:15 Clear 53 11.8 46 7.8 77 77 SSW 5 7 29.97 1015 10 16.0934 0 0
6:35 am 06:35 Clear 53 11.7 46 7.7 77 77 SW 5 7 29.97 1015 10 16.0934 0 0
6:55 am 06:55 Sunny 53 11.6 46 7.7 77 77 SW 5 7 29.97 1015 10 16.0934 0 0
7:15 am 07:15 Sunny 53 11.8 46 8 78 78 SW 5 7 29.97 1015 10 16.0934 0 0
7:35 am 07:35 Sunny 55 12.6 47 8.4 76 76 SW 5 7 29.94 1014 10 16.0934 0 0
7:55 am 07:55 Sunny 56 13.2 48 9 76 76 SSW 5 7 29.94 1014 10 16.0934 0 0
8:15 am 08:15 Sunny 57 14.1 50 10 77 77 SSW 3 6 29.94 1014 10 16.0934 0 0
8:35 am 08:35 Sunny 60 15.4 51 10.5 73 73 SSW 7 11 29.94 1014 10 16.0934 0 0
8:55 am 08:55 Sunny 61 16.1 52 11.3 73 73 SSW 7 11 29.91 1013 10 16.0934 0 0
9:15 am 09:15 Sunny 63 17 53 11.6 71 71 SSW 8 13 29.88 1012 10 16.0934 0 0
9:35 am 09:35 Sunny 65 18.1 54 12.2 69 69 SW 7 11 29.88 1012 10 16.0934 0 0
9:55 am 09:55 Sunny 67 19.5 54 12.2 63 63 SW 9 15 29.85 1011 10 16.0934 0 0
10:15 am 10:15 Sunny 69 20.3 54 12.2 60 60 SW 12 19 29.85 1011 10 16.0934 0 0
10:35 am 10:35 Sunny 70 21 54 12.2 57 57 SW 9 15 29.85 1011 10 16.0934 0 0
10:55 am 10:55 Sunny 72 22 55 13 57 57 SW 9 15 29.85 1011 10 16.0934 0 0
11:15 am 11:15 Sunny 73 22.9 56 13.3 55 55 S 9 15 29.83 1010 10 16.0934 0 0
11:35 am 11:35 Sunny 75 23.7 55 13 51 51 SSW 12 19 29.83 1010 10 16.0934 0 0
11:55 am 11:55 Sunny 76 24.6 56 13.3 49 49 SSW 10 17 29.8 1009 10 16.0934 0 0
12:15 pm 12:15 Sunny 77 25.1 55 13 47 47 S 12 19 29.8 1009 10 16.0934 0 0
12:35 pm 12:35 Sunny 78 25.4 55 12.9 46 46 SSE 15 24 29.8 1009 10 16.0934 0 0
12:55 pm 12:55 Sunny 79 26 56 13.4 46 46 S 12 19 29.77 1008 10 16.0934 0 0
1:15 pm 13:15 Sunny 79 26.3 56 13.4 45 45 SSE 14 22 29.74 1007 10 16.0934 0 0
1:35 pm 13:35 Sunny 80 26.5 56 13.1 44 44 S 18 30 29.74 1007 10 16.0934 0 0
1:55 pm 13:55 Sunny 81 27 55 12.5 41 41 S 15 24 29.74 1007 10 16.0934 0 0
2:15 pm 14:15 Sunny 81 27.3 54 12.4 40 40 S 17 28 29.71 1006 10 16.0934 0 0
2:35 pm 14:35 Sunny 83 28.4 54 12.1 36 36 S 21 33 29.71 1006 10 16.0934 0 0
2:55 pm 14:55 Sunny 83 28.5 54 12.3 37 37 S 14 22 29.68 1005 10 16.0934 0 0
3:15 pm 15:15 Sunny 84 28.7 54 12 36 36 S 18 30 29.68 1005 10 16.0934 0 0
3:35 pm 15:35 Sunny 84 28.8 53 11.7 35 35 S 16 26 29.65 1004 10 16.0934 0 0
3:55 pm 15:55 Sunny 84 28.9 53 11.9 35 35 S 20 31 29.65 1004 10 16.0934 0 0
4:15 pm 16:15 Sunny 85 29.2 53 11.9 34 34 S 16 26 29.65 1004 10 16.0934 0 0
4:35 pm 16:35 Sunny 84 29.1 54 12 35 35 S 15 24 29.65 1004 10 16.0934 0 0
4:55 pm 16:55 Sunny 84 29 53 11.9 35 35 S 16 26 29.65 1004 10 16.0934 0 0
5:15 pm 17:15 Sunny 83 28.5 54 12.3 37 37 S 16 26 29.65 1004 10 16.0934 0 0
5:35 pm 17:35 Sunny 83 28.1 54 12.4 38 38 S 12 19 29.68 1005 10 16.0934 0 0
5:55 pm 17:55 Sunny 83 28.3 53 11.5 35 35 S 16 26 29.68 1005 10 16.0934 0 0
6:15 pm 18:15 Sunny 83 28.2 52 11 34 34 S 14 22 29.68 1005 10 16.0934 0 0
6:35 pm 18:35 Sunny 82 27.8 50 10 33 33 S 15 24 29.68 1005 10 16.0934 0 0
6:55 pm 18:55 Sunny 81 27.2 50 10.1 34 34 S 14 22 29.68 1005 10 16.0934 0 0
7:15 pm 19:15 Sunny 80 26.4 51 10.8 38 38 S 10 17 29.68 1005 10 16.0934 0 0
7:35 pm 19:35 Sunny 78 25.5 52 11.3 41 41 S 12 19 29.68 1005 10 16.0934 0 0
7:55 pm 19:55 Sunny 76 24.3 53 11.4 44 44 S 12 19 29.71 1006 10 16.0934 0 0
8:15 pm 20:15 Sunny 73 23 53 11.7 49 49 S 9 15 29.74 1007 10 16.0934 0 0
8:35 pm 20:35 Partly Cloudy 73 22.8 52 11.3 48 48 S 9 15 29.74 1007 10 16.0934 0 0
8:55 pm 20:55 Clear 72 22.2 53 11.5 51 51 S 10 17 29.74 1007 10 16.0934 0 0
9:15 pm 21:15 Clear 72 22.1 53 11.7 52 52 S 13 20 29.74 1007 10 16.0934 0 0
9:35 pm 21:35 Clear 72 22 53 11.5 51 51 S 14 22 29.77 1008 10 16.0934 0 0
9:55 pm 21:55 Clear 72 22 52 11.3 51 51 S 13 20 29.77 1008 10 16.0934 0 0
10:15 pm 22:15 Partly Cloudy 71 21.9 52 11.3 51 51 S 14 22 29.77 1008 10 16.0934 0 0
10:35 pm 22:35 Partly Cloudy 71 21.6 52 11.2 52 52 S 15 24 29.77 1008 10 16.0934 0 0
10:55 pm 22:55 Clear 71 21.5 52 10.9 51 51 S 12 19 29.83 1010 10 16.0934 0 0
11:15 pm 23:15 Clear 70 21 52 11 53 53 S 10 17 29.83 1010 10 16.0934 0 0
11:35 pm 23:35 Clear 69 20.6 52 11 54 54 S 13 20 29.83 1010 10 16.0934 0 0
11:55 pm 23:55 Clear 69 20.5 52 10.9 54 54 S 14 22 29.83 1010 10 16.0934 0 0

Powered by AerisWeather